Flag for Australia Weather past 2 weeks in Canberra, Australian Capital Territory, Australia

Now
50 °F

Clear.


Feels Like: 48 °F
Forecast: 35 / 66 °F
Wind: 6 mph from East

Location: Canberra Airport

Current Time: Sep 21, 2014 at 10:48:09 PM

Latest Report: Sep 21, 2014 at 10:00 PM


Visibility: N/A

Pressure: 30.42 "Hg

Humidity: 82%

Dew point: 45 °F

Location of CanberraLocation

Historic Weather in Canberra — Graph

°F

Canberra temperature yesterday

Maximum temperature yesterday: 64 °F (at 3:00 PM)
Minimum temperature yesterday: 28 °F (at 5:30 AM)
Average temperature yesterday: 47 °F

Past Weeks' High & Low Weather Summary

 TemperatureHumidityPressure
High66 °F (Sep 15, 3:00 PM)100% (Sep 7, 12:00 AM)30.48 "Hg (Sep 7, 12:00 AM)
Low27 °F (Sep 19, 3:30 AM)27% (Sep 20, 2:00 PM)29.68 "Hg (Sep 10, 4:00 AM)
Average50 °F72%30.09 "Hg
* Reported Sep 6 9:00 PM — Sep 21 9:00 PM, Canberra, Weather by CustomWeather, © 2014

Note: Actual official high and low records may vary slightly from our data, if they occured in-between our weather recording intervals... More about our weather records

Advertising

Canberra weather history for previous 24 hours

 ConditionsComfort  
Time TempWeatherWind HumidityBarometerVisibility
9:00 PM
Sep 21
50 °FClear.6 mph82%30.39 "HgN/A
8:30 PM52 °FPassing clouds.7 mph82%30.39 "HgN/A
8:00 PM52 °FPassing clouds.9 mph82%30.39 "HgN/A
7:00 PM54 °FMostly cloudy.7 mph72%30.36 "HgN/A
6:30 PM55 °FPassing clouds.6 mph63%30.33 "HgN/A
6:00 PM57 °FPassing clouds.8 mph63%30.33 "HgN/A
5:30 PM61 °FPassing clouds.8 mph55%30.30 "HgN/A
5:00 PM63 °FPassing clouds.7 mph49%30.30 "HgN/A
4:30 PM63 °FPassing clouds.8 mph49%30.30 "HgN/A
4:00 PM63 °FPassing clouds.6 mph49%30.30 "HgN/A
3:30 PM63 °FPassing clouds.6 mph49%30.30 "HgN/A
3:00 PM63 °FPassing clouds.7 mph45%30.30 "HgN/A
2:30 PM63 °FPassing clouds.5 mph52%30.33 "HgN/A
2:00 PM63 °FPassing clouds.5 mph49%30.33 "HgN/A
1:00 PM61 °FPassing clouds.6 mph48%30.36 "HgN/A
12:30 PM59 °FPassing clouds.6 mph51%30.36 "HgN/A
12:00 PM59 °FPassing clouds.6 mph51%30.39 "HgN/A
11:30 AM57 °FScattered clouds.6 mph55%30.39 "HgN/A
11:00 AM55 °FScattered clouds.3 mph55%30.42 "HgN/A
10:30 AM57 °FPartly sunny.3 mph59%30.42 "HgN/A
10:00 AM54 °FPartly sunny.3 mph58%30.42 "HgN/A
9:30 AM54 °FPartly sunny.3 mph67%30.42 "HgN/A
9:00 AM52 °FPartly sunny.5 mph72%30.42 "HgN/A
8:00 AM48 °FBroken clouds.1 mph82%30.42 "HgN/A
7:30 AM46 °FBroken clouds.3 mph87%30.42 "HgN/A
7:00 AM46 °FBroken clouds.5 mph87%30.39 "HgN/A
6:00 AM45 °FBroken clouds.5 mph87%30.36 "HgN/A
5:00 AM45 °FOvercast.No wind93%30.33 "HgN/A
4:30 AM45 °FOvercast.3 mph93%30.33 "HgN/A
4:00 AM43 °FOvercast.5 mph93%30.33 "HgN/A
11:00 PM
Sep 20
41 °FOvercast.6 mph93%30.36 "HgN/A
10:00 PM43 °FPassing clouds.7 mph81%30.36 "HgN/A
Weather by CustomWeather, © 2014

See weather overviewHow to use our weather pages